Location: Barrio Las Umbrías
(40.4173°N, 4.8685°W)
Time: 13:06:10
(UTC+00:00)

Resurs 1-3 - Pass Details

Date: 17 August 2022
Orbit: 629 x 630 km, 97.8° (Epoch: 28 September)

Event Time Altitude Azimuth Distance (km) Brightness Sun altitude
Exits shadow 20:31:51 - 176° (S) 2,247 6.1 -14.2°
Reaches altitude 10° 20:32:27 10° 177° (S) 2,003 5.8 -14.3°
Maximum altitude 20:36:46 64° 259° (WSW) 702 4.0 -15.0°
Drops below altitude 10° 20:41:08 10° 341° (NNW) 2,019 7.0 -15.7°
Sets 20:43:22 0° 345° (NNW) 2,932 7.8 -16.1°
